Weather in Poltava

Ukraine / Poltava Region     49°35′22″N   34°33′04″E
temp.,
°C
wind,
m/s
gust,
m/s
humid.,
%
clouds,
%
prec.,
mm/h
press.,
hPa
HPBL,
m
31 july, sat
sat3100:00+21nw45590 0.0 100969
03:00+20n33640 0.0 101040
06:00+20nne11700 0.0 101011
09:00+26wnw11480 0.0 1011541
12:00+30nw22350 0.0 10112232
15:00+32nw33304 0.0 10102607
18:00+32nnw33304 0.0 10102641
21:00+26wnw22453 0.0 101121
1 august, sun
sun100:00+23wsw12531 0.0 101111
03:00+21ese00580 0.0 101211
06:00+21se11591 0.0 101211
09:00+29sse22390 0.0 1012470
12:00+33sw232868 0.0 10113147
15:00+34w2326100 0.0 10102824
18:00+31s2431100 0.0 1009134
21:00+28w22394 0.0 101017
2 august, mon
mon200:00+24ssw224825 0.0 101015
03:00+23s335159 0.0 101035
06:00+22s225343 0.0 101119
09:00+29ssw454015 0.0 1010537
12:00+34ssw572886 0.0 10091844
15:00+36ssw792431 0.0 10083034
18:00+33ssw793197 0.3 10061918
21:00+21nw238671 5.2 100967
3 august, tue
tue300:00+21nw3691100 1.2 1009185
03:00+20w36922 1.3 1009115
06:00+17nw3894100 0.3 1012304
09:00+20nnw34735 0.9 1013497
12:00+26nw44440 0.1 10131297
15:00+27nw44380 0.1 10121834
18:00+27nw55387 0.0 10122077
21:00+21nw48568 0.0 1014134
4 august, wed
wed400:00+19nnw346240 0.0 101563
03:00+19wnw1159100 0.0 101714
06:00+18sw22630 0.0 101822
09:00+24w00445 0.0 1018618
12:00+28wnw233189 0.0 10172368
15:00+30nw2226100 0.0 10162825
18:00+29wsw0227100 0.0 10152732
21:00+24ssw2239100 0.0 101530